Starlink 3231

operational
NORAD ID: 49744 Int'l Des: 2021-115 Owner: SPXS Country: US Constellation: starlink
LEOCIRCULAR

Über Starlink 3231

Beschreibung wird geladen...

Live-Position

3D-Globus wird geladen...

Nächste Überflüge

Höhenverlauf

Altitude vs Time

uPlot chart will show altitude changes over time

Zweizeiliger Elementsatz

1 49744U 21115W 25258.29075795 .00001962 00000-0 14136-3 0 9990
2 49744 53.2159 216.4119 0001583 79.9762 280.1409 15.08836803209058
Epoch: 15. Sept. 2025 • Age: 15 hours

Aktueller Status

Höhe 551.1 km
Geschwindigkeit 7.59 km/s
Subsatellitenpunkt -33.33°S, 93.64°E
Startdatum 2. Dez. 2021
Alter 3.7 years
Typ internet

Technische Details

Klassifizierung Payload
Masse 290.00 kg
Trockenmasse 270.00 kg
Gesamtmasse 290.00 kg
Länge 0.20 m
Durchmesser 2.80 m
Spannweite 9.00 m
Form Box + pan
Hersteller SPXS
Bus-Typ Starlink
Phasenstatus In Orbit
Besitzer/Staat SPXS/US

Große Konstellationen

Loading constellations...